Location: Martz Observatory
(42.0083°N, 79.0667°W)
Time: 20:36:41
(UTC-04:00)

Cosmos 2297 Rocket - Pass Details

Date: 26 May 2018
Orbit: 840 x 842 km, 71.0° (Epoch: 24 June)

Event Time Altitude Azimuth Distance (km) Brightness Sun altitude
Exits shadow 01:41:29 19° 269° (W) 1,917 3.9 -26.5°
Maximum altitude 01:44:03 26° 307° (NW) 1,620 3.9 -26.5°
Drops below altitude 10° 01:48:43 10° 2° (N) 2,469 5.6 -26.3°
Sets 01:51:36 0° 16° (NNE) 3,408 6.7 -26.2°
